www.pogodaiklimat.ru

Погода и климат >> Архив погоды >> Малайзия >> Kuantan


ПОГОДА в Kuantan

  • Прогноз погоды в Kuantan
  • Монитор погоды в Kuantan
  • Климат города

АРХИВ ПОГОДЫ в Kuantan

Время (UTC), дата Ветер
(напр.,м/с)
 
Видим.   Явления Облачность Т
(С)
Тd
(С)
f
(%)
Тe
(С)
Тes
(С)
Комфортность P
(гПа)
Po
(гПа)
Тmin
(С)
Tmax
(С)
R
(мм)
R24
(мм)
S
(см)
00 14.01 СВ 1 9000 м слабый дождь 10/5 210 м
[Frnb As op Cs]
+20.9 +19.8 93 +27 +27 душно 1012.7 1010.9 +20.8 23
03 14.01 СВ 1 10 км слабый дождь 10/5 270 м
[Frnb As op Cs]
+22.2 +20.7 91 +29 +33 очень
душно
1013.6 1011.8
06 14.01 штиль 0 13 км слабый дождь 10/5 300 м
[Frnb As op Cs]
+24.4 +21.4 83 +31 +37 очень
душно
1011.7 1009.9 0.4
09 14.01 штиль 0 16 км мгла {дождь} 10/3 720 м
[Sc As op Cs]
+24.7 +23.0 90 +33 +35 очень
душно
1009.8 1008.0
12 14.01 С 1 12 км дымка 9/4 720 м
[Sc Ac trans Cs]
+23.0 +22.6 98 +32 +32 очень
душно
1010.6 1008.8 +25.0 0.0
15 14.01 С 2 12 км слабый дождь 9/4 720 м
[Sc Ac trans Cs]
+22.9 +22.2 96 +31 +31 очень
душно
1012.9 1011.1
18 14.01 СВ 1 12 км слабый дождь 10/5 240 м
[Sc Ac trans Cs]
+22.6 +22.2 98 +30 +30 очень
душно
1011.7 1009.9 0.4
21 14.01 СВ 2 9000 м слабый дождь 10/5 210 м
[Sc Ac trans Cs]
+22.1 +21.7 98 +29 +29 очень
душно
1009.8 1008.0
00 15.01 С 2 8000 м слабый дождь 10/4 180 м
[Frnb As trans Cs]
+21.8 +21.4 98 +28 +28 душно 1010.6 1008.8 +20.8 2
03 15.01 СВ 3 14 км мгла 10/3 720 м
[Sc Ac trans Cs]
+23.6 +22.5 94 +31 +35 очень
душно
1011.5 1009.7
06 15.01 СВ 4 15 км мгла 10/4 570 м
[Cu Sc Ac inh Cs]
+26.3 +24.1 88 +37 +40 очень
душно
1010.2 1008.4 0.0
09 15.01 С 3 12 км мгла 10/4 570 м
[Cu Sc Ac inh Cs]
+25.9 +23.7 88 +35 +37 очень
душно
1008.7 1006.9
12 15.01 С 3 12 км мгла 9/3 720 м
[Sc Ac lent Cs]
+24.1 +22.8 92 +32 +32 очень
душно
1009.4 1007.6 +26.6
15 15.01 СВ 1 12 км мгла 9/3 720 м
[Sc Ac lent Cs]
+23.7 +22.5 93 +31 +31 очень
душно
1011.5 1009.7
18 15.01 С 2 10 км мгла 9/3 720 м
[Sc Ac lent Cs]
+23.1 +21.9 93 +31 +31 очень
душно
1010.2 1008.4
21 15.01 Ю 1 8000 м дымка 9/3 180 м
[Sc Ac lent Cs]
+22.5 +21.8 96 +30 +30 очень
душно
1008.6 1006.8
00 16.01 штиль 0 15 км мгла 9/1 600 м
[Cu hum Ac trans Ci sp]
+22.3 +21.8 97 +30 +30 очень
душно
1009.9 1008.1 +21.8 0.0
03 16.01 СВ 2 16 км мгла 8/3 570 м
[Cu med, cong Ac trans Ci sp]
+27.7 +24.6 83 +39 +46 очень
душно
1011.7 1009.9
06 16.01 В 3 17 км мгла 9/5 500 м
[Cb cap Ac trans Ci sp]
+29.1 +25.8 82 +43 +48 опасность
перегрева
1009.8 1008.0
09 16.01 СВ 3 6000 м в посл. час дождь {ливн. осадки} 9/5 120 м
[Sc Ac lent Cs]
+26.5 +24.6 89 +37 +39 очень
душно
1008.1 1006.3
12 16.01 В 2 12 км в посл. час дождь 9/3 720 м
[Sc Ac lent Cs]
+25.0 +23.4 91 +34 +34 очень
душно
1009.2 1007.4 +30.0 0.0
15 16.01 С 3 10 км мгла 9/3 720 м
[Sc Ac lent Ci sp]
+24.0 +22.9 94 +32 +32 очень
душно
1010.6 1008.8
18 16.01 СВ 2 10 км мгла 9/3 720 м
[Sc Ac trans Ci sp]
+23.8 +22.4 92 +31 +31 очень
душно
1010.0 1008.2
21 16.01 СВ 2 9000 м мгла 9/3 720 м
[St Ac lent Ci sp]
+23.7 +22.5 93 +31 +31 очень
душно
1008.5 1006.7
00 17.01 СВ 1 15 км мгла 9/3 720 м
[Sc Ac trans Ci fib]
+23.6 +22.7 95 +31 +31 очень
душно
1009.6 1007.8 +22.3 0.0
03 17.01 СВ 4 16 км мгла 8/4 540 м
[Cu hum Ac trans Ci fib]
+28.4 +25.7 85 +42 +46 опасность
перегрева
1010.6 1008.8
06 17.01 СВ 4 18 км мгла 9/4 570 м
[Cu med, cong Ac trans Ci sp]
+29.4 +25.9 81 +44 +48 опасность
перегрева
1008.6 1006.8
09 17.01 СВ 2 17 км мгла 9/4 540 м
[Cu med, cong Ac trans Ci sp]
+29.1 +25.5 81 +43 +45 опасность
перегрева
1006.8 1005.0
12 17.01 СВ 2 12 км мгла 8/3 750 м
[Sc Ac trans Ci sp]
+26.0 +24.0 89 +36 +36 очень
душно
1007.9 1006.1 +29.8
15 17.01 СВ 2 12 км мгла 8/3 750 м
[Sc Ac trans Ci sp]
+24.2 +23.1 94 +32 +32 очень
душно
1010.3 1008.5
18 17.01 СВ 2 10 км дымка 8/3 150 м
[Sc Ac trans Ci sp]
+23.7 +22.8 95 +31 +31 очень
душно
1010.2 1008.4
21 17.01 С 2 8000 м дымка 9/4 120 м
[Sc Ac lent Ci sp]
+22.7 +22.2 97 +31 +31 очень
душно
1008.5 1006.7
00 18.01 С 2 12 км дымка 9/4 270 м
[Cb cap Ac trans Ci sp]
+23.0 +22.3 96 +31 +32 очень
душно
1009.7 1007.9 +22.5
03 18.01 СВ 3 15 км мгла 9/1 600 м
[Cu hum Ac trans Ci sp]
+27.9 +25.1 85 +40 +46 очень
душно
1010.7 1008.9
06 18.01 В 3 18 км мгла 9/4 570 м
[Cu med, cong Ac trans Ci sp]
+30.2 +26.0 78 +45 +50 опасность
перегрева
1008.8 1007.0
09 18.01 В 3 14 км осадки на расстоянии 9/4 480 м
[Cb cap Ac trans Ci sp]
+29.4 +25.7 81 +44 +45 опасность
перегрева
1007.2 1005.4
12 18.01 СВ 1 12 км мгла 9/3 750 м
[Sc Ac trans Ci sp]
+26.0 +24.3 90 +36 +36 очень
душно
1008.6 1006.8 +31.1
15 18.01 СВ 2 12 км мгла 9/3 750 м
[Sc Ac trans Ci sp]
+24.7 +23.6 94 +34 +34 очень
душно
1010.0 1008.2
18 18.01 СВ 2 12 км дымка 9/3 750 м
[Sc Ac lent Ci sp]
+23.8 +23.1 96 +32 +32 очень
душно
1009.7 1007.9
21 18.01 штиль 0 12 км дымка 8/3 720 м
[Sc Ac trans Ci fib]
+23.2 +22.5 96 +32 +32 очень
душно
1008.2 1006.4
00 19.01 З 1 12 км дымка 9/1 240 м
[St Ac trans Ci sp]
+22.8 +22.3 97 +31 +31 очень
душно
1009.7 1007.9 +22.3
03 19.01 СВ 3 18 км мгла 8/3 570 м
[Cu med, cong Ac trans Ci sp]
+28.4 +25.5 84 +42 +47 опасность
перегрева
1010.9 1009.1
06 19.01 В 4 8000 м осадки на расстоянии 9/4 500 м
[Cb cap Ac lent Ci sp]
+29.6 +26.1 82 +45 +49 опасность
перегрева
1008.9 1007.1
09 19.01 СВ 4 10 км осадки на расстоянии 9/4 500 м
[Cb cap Ac lent Ci sp]
+28.6 +25.7 84 +42 +44 опасность
перегрева
1006.8 1005.0
12 19.01 СВ 3 12 км мгла 9/3 720 м
[Sc Ac trans Ci sp]
+25.9 +24.2 90 +36 +36 очень
душно
1008.7 1006.9 +30.8
15 19.01 СВ 2 12 км мгла 9/3 720 м
[Sc Ac trans Ci sp]
+25.2 +23.9 93 +35 +35 очень
душно
1010.3 1008.5
18 19.01 С 2 10 км зарница 9/4 480 м
[Cb cap Ac trans Ci sp]
+24.7 +23.6 94 +34 +34 очень
душно
1009.2 1007.4
21 19.01 штиль 0 9000 м зарница 9/3 480 м
[Cb cap Ac trans Ci sp]
+24.4 +23.5 95 +33 +33 очень
душно
1008.0 1006.2
00 20.01 штиль 0 15 км мгла 8/3 500 м
[Cb cap Ac trans Ci sp]
+24.2 +23.5 96 +33 +33 очень
душно
1008.9 1007.1 +22.9
03 20.01 СВ 2 16 км мгла 8/5 500 м
[Cb cap Ac trans Ci sp]
+28.1 +25.6 86 +41 +46 опасность
перегрева
1009.8 1008.0
06 20.01 ЮВ 3 12 км гроза, ливневой дождь 9/5 500 м
[Cb cap Ac trans Ci sp]
+26.6 +25.6 94 +39 +43 очень
душно
1008.2 1006.4 1
09 20.01 С 3 7000 м гроза, ливневой дождь 9/6 180 м
[Cb cap Ac trans Cs]
+25.1 +24.5 96 +35 +36 очень
душно
1007.0 1005.2
12 20.01 СВ 2 6000 м слабый дождь 9/4 150 м
[Cb cap Ac lent Cs]
+24.3 +23.8 97 +33 +33 очень
душно
1008.2 1006.4 +30.1 8
15 20.01 С 2 6000 м зарница {дождь} 9/4 150 м
[Cb cap Ac lent Cs]
+24.2 +23.5 96 +33 +33 очень
душно
1009.9 1008.1
18 20.01 С 2 6000 м слабый дождь 9/4 150 м
[Cb cap Ac lent Cs]
+24.0 +23.6 98 +33 +33 очень
душно
1009.0 1007.2 0.0
21 20.01 штиль 0 7000 м в посл. час дождь 9/3 150 м
[St Ac lent Cs]
+23.8 +23.4 98 +32 +32 очень
душно
1007.5 1005.7

 

Местоположение метеостанции Kuantan (Малайзия): широта 3.78 долгота 103.21 высота над уровнем моря 16 м.

В архиве по умолчанию представлена погода в Kuantan за последнюю неделю. Архивные данные за месяц целиком и за предыдущие месяцы, начиная с января 2011 года, Вы можете получить, выбрав интересующий диапазон дат из раскрывающегося списка и нажав кнопку "Ввод!".

Внимание! Время в таблицах - всемирное. Для получения местного времени необходимо прибавить поправку, которая в Kuantan равна 7 ч.

Смотрите также архив погоды в соседних городах и на ближайших метеорологических станциях:

Погода в Kuala Trengganu (Малайзия) (178 км)
Погода в Mersing (Малайзия) (198 км)
Погода в Kuala Lumpur (Малайзия) (198 км)
Погода в Malacca (Малайзия) (199 км)
Погода в Kuala Lumpur Int Airport (Малайзия) (205 км)
Погода в Cameron Highlands (Малайзия) (218 км)
Погода в Johore Bharu / Senai (Малайзия) (245 км)
Погода в Ipoh (Малайзия) (250 км)
Погода в Singapore (Сингапур) (281 км)
Погода в Sitiawan (Малайзия) (283 км)

Пояснения к столбцам:

Ветер - указаны скорость ветра в м/с - средняя за 10 мин, порывы в срок и между сроками (в фигурных скобках) и направление, откуда дует ветер: С - северный, СВ - северо-восточный, В - восточный, ЮВ - юго-восточный, Ю - южный, ЮЗ - юго-западный, З - западный, СЗ - северо-западный.
Видимость - горизонтальная дальность видимости в метрах или километрах. При видимости от 1 до 10 км при отсутствии осадков обычно наблюдается дымка, при ухудшении видимости до 1 км и менее - туман. В сухую погоду видимость может ухудшаться дымом, пылью или мглою.
Явления - указаны атмосферные явления, наблюдавшиеся в срок или в последний час перед сроком; фигурными скобками обозначены явления, наблюдавшиеся между сроками (за 1-3 часа до срока); квадратными скобками обозначены град или гололедные отложения с указанием их диаметра в мм.
Облачность - указаны через наклонную черту общая и нижняя облачность в баллах и высота нижней границы облаков в метрах; квадратными скобками обозначены формы облаков: Ci - перистые, Cs - перисто-слоистые, Cc - перисто-кучевые, Ac - высококучевые, As - высокослоистые, Sc - слоисто-кучевые, Ns - слоисто-дождевые, Cu - кучевые, Cb - кучево-дождевые. Подробнее классификацию облаков см. в Атласе облаков (PDF).
T - Температура воздуха - температура, измеренная на высоте 2 м над землей.
Td - Температура точки росы - температура, при понижении до которой содержащийся в воздухе водяной пар достигнет насыщения.
f - Относительная влажность воздуха - влажноcть воздуха, измеренная на высоте 2 м над землей.
Te - Эффективная температура - температура, которую ощущает одетый по сезону человек в тени. Характеристика душности погоды. При расчете учитывается влияние влажности воздуха и скорости ветра на теплоощущения человека.
Tes - Эффективная температура на солнце - температура, которую ощущает человек, с поправкой на солнечный нагрев. Характеристика знойности погоды. Зависит от высоты солнца над горизонтом, облачности и скорости ветра. Ночью, в пасмурную погоду, а также при ветре 12 м/с и более поправка равна нулю.
P - Атмосферное давление - приведенное к уровню моря атмосферное давление.
Po - Атмосферное давление - измеренное на уровне метеостанции атмосферное давление.
Tmin - Минимальная температура - минимум температуры воздуха на высоте 2 м над землей.
Tmax - Максимальная температура - максимум температуры воздуха на высоте 2 м над землей.
R - Количество осадков - Количество выпавших осадков за период времени, мм. При наведении курсора мыши на число - период времени, за который выпало указанное количество осадков.
R24 - Количество осадков - Количество выпавших осадков за 24 часа, мм.
S - Снежный покров - Высота снежного покрова, см. При наведении курсора мыши на число - состояние снежного покрова и степень покрытия местности в баллах.